Location: Newark
(27.9675°N, 86.8869°E)
Time: 09:13:42
(UTC+00:00)

SR - Pass Details

Date: 25 October 2019
Orbit: 573 x 882 km, 66.7° (Epoch: 19 November)

Event Time Altitude Azimuth Distance (km) Brightness Sun altitude
Rises 22:55:57 0° 357° (N) 3,476 ? -19.0°
Reaches altitude 10° 22:59:42 10° 20° (NNE) 2,540 ? -18.1°
Maximum altitude 23:02:54 15° 53° (NE) 2,208 ? -17.4°
Drops below altitude 10° 23:06:03 10° 86° (E) 2,508 ? -16.7°
Sets 23:09:42 0° 110° (ESE) 3,405 ? -15.9°
